SOFIA_(OBSERVATORY) current weather conditions

sailwx.info

Wind from 190 at 2 knots

Air temperature 6.0° C
Visibility: greater than 5.4 NM
Dewpoint -6.0° C

Last reported at 2020-Jan-22 13:00 UTC.
Time now 2020-Jan-22 14:07 UTC

Location: N 42°39' E 023°23'.
View on Google Maps.

See reports from other nearby stations

  
Tides and Currents Weather Stations Pressure Air Temp Water Temp Dewpoint Dewpoint Depression Visibility Wind Speed Wind Dir Waves Ship Positions
date/time (UTC)wind fromknots sea level pressurealtimeterstation pressurevisibilityair tempwater tempwave heightnotes
2020-Jan-22 13:00 190 2 5.4 6.0
2020-Jan-22 12:30 170 2 5.4 5.0
2020-Jan-22 12:00 5.4 4.0
2020-Jan-22 11:30 5.4 4.0
2020-Jan-22 11:00 4.9 3.0
2020-Jan-22 10:30 4.3 1.0
2020-Jan-22 10:00 300 2 4.3-0.0
2020-Jan-22 09:30 310 2 4.3-1.0
2020-Jan-22 09:00 280 4 4.3-2.0
2020-Jan-22 08:30 300 4 4.9-3.0
2020-Jan-22 08:00 290 4 4.3-4.0
2020-Jan-22 07:30 1.9-4.0 Mist.
2020-Jan-22 07:00 130 2 1.6-6.0 Mist.
2020-Jan-22 06:30 140 2 1.9-8.0 Mist.
2020-Jan-22 06:00 1.6-9.0 Mist.
2020-Jan-22 05:30 2.4-8.0 Mist.
2020-Jan-22 05:00 340 2 3.2-7.0
2020-Jan-22 04:30 3.2-7.0
2020-Jan-22 04:00 130 1 3.2-8.0
2020-Jan-22 03:30 3.2-8.0
2020-Jan-22 03:00 360 1 3.2-7.0
2020-Jan-22 02:30 350 4 3.2-7.0
2020-Jan-22 02:00 300 2 3.8-7.0
2020-Jan-22 01:30 280 4 3.8-6.0
2020-Jan-22 01:00 340 2 3.8-6.0
2020-Jan-22 00:30 300 2 3.8-5.0
2020-Jan-22 00:00 4.3-5.0
2020-Jan-21 23:30 300 5 4.3-4.0
2020-Jan-21 23:00 290 4 4.3-4.0
2020-Jan-21 22:30 290 7 4.3-4.0
2020-Jan-21 22:00 290 6 4.3-4.0
2020-Jan-21 21:30 280 6 4.3-3.0
2020-Jan-21 21:00 290 7 4.3-3.0
2020-Jan-21 20:30 280 11 4.3-4.0
2020-Jan-21 20:00 280 6 4.3-4.0
2020-Jan-21 19:30 280 6 4.3-4.0
2020-Jan-21 19:00 280 7 4.3-3.0
2020-Jan-21 18:30 280 8 4.3-3.0
2020-Jan-21 18:00 280 9 4.3-3.0
2020-Jan-21 17:30 270 11 4.3-3.0
2020-Jan-21 17:00 280 7 4.3-3.0
2020-Jan-21 16:30 270 8 4.3-2.0
2020-Jan-21 16:00 280 8 4.3-2.0
2020-Jan-21 15:30 280 7 4.3-1.0
2020-Jan-21 15:00 280 9 5.4-0.0
2020-Jan-21 14:30 290 9 5.4 1.0
2020-Jan-21 14:00 290 12 5.4 1.0
2020-Jan-21 13:30 290 12 5.4 2.0
2020-Jan-21 13:00 290 11 5.4 1.0
2020-Jan-21 12:30 290 11 5.4 1.0
2020-Jan-21 12:00 280 13 5.4 2.0
2020-Jan-21 11:30 280 12 5.4 1.0
2020-Jan-21 11:00 290 12 5.4 1.0
2020-Jan-21 10:30 280 13 5.4-0.0
2020-Jan-21 10:00 280 13 5.4-0.0
2020-Jan-21 09:30 280 13 4.3-1.0
2020-Jan-21 09:00 310 6 4.3-1.0
2020-Jan-21 08:30 300 4 3.2-3.0
2020-Jan-21 08:00 2.7-4.0 Mist.
2020-Jan-21 07:30 2.2-6.0 Mist.
2020-Jan-21 07:00 2.3-7.0 Mist.
2020-Jan-21 06:30 100 1 2.7-9.0 Mist.
2020-Jan-21 06:00 080 1 1.5-9.0 Mist.
2020-Jan-21 05:30 2.7-9.0 Mist.
2020-Jan-21 05:00 2.7-9.0 Mist.
2020-Jan-21 04:30 350 2 2.7-9.0 Mist.
2020-Jan-21 04:00 2.7-9.0 Mist.
2020-Jan-21 03:30 2.7-9.0 Mist.
2020-Jan-21 03:00 100 1 2.7-8.0 Mist.
2020-Jan-21 02:30 2.7-7.0 Mist.
2020-Jan-21 02:00 160 0 2.7-8.0 Mist.
2020-Jan-21 01:30 060 0 2.7-8.0 Mist.
2020-Jan-21 01:00 3.2-7.0
2020-Jan-21 00:30 010 1 2.7-6.0 Mist.
2020-Jan-21 00:00 3.2-6.0
2020-Jan-20 23:30 330 1 3.8-7.0
2020-Jan-20 23:00 360 4 3.8-5.0
2020-Jan-20 22:30 290 6 4.3-4.0
2020-Jan-20 22:00 280 6 4.3-4.0
2020-Jan-20 21:30 280 6 4.3-4.0
2020-Jan-20 21:00 270 7 4.3-4.0
2020-Jan-20 20:30 280 6 4.3-4.0
2020-Jan-20 20:00 270 8 3.8-4.0
2020-Jan-20 19:30 270 7 3.8-4.0
2020-Jan-20 19:00 270 7 4.3-4.0
2020-Jan-20 18:30 280 6 3.8-3.0
2020-Jan-20 18:00 280 6 3.8-4.0
2020-Jan-20 17:30 280 7 3.8-3.0
2020-Jan-20 17:00 280 9 4.9-2.0
2020-Jan-20 16:30 290 8 4.9-1.0
2020-Jan-20 16:00 280 9 4.9-1.0
2020-Jan-20 15:30 280 8 4.9-1.0
2020-Jan-20 15:00 280 9 5.4-0.0
2020-Jan-20 14:30 290 8 5.4 1.0
2020-Jan-20 14:00 310 6 5.4 2.0